sat.trackr.live / text

‹ back to catalog

STARLINK-1231

NORAD 45212 · 2020-012AL

PAYLOAD ACTIVE UNKNOWN

§ Identity

Operator
Country
US
Launch date
2020-02-17
Launch site
AFETR
Launch vehicle
Mass (kg)
RCS (m²)

Purposes: comms

External: N2YO · Heavens-Above · Gunter

§ Orbital elements

Epoch: 2026-09-20T04:35:00.214080Z

Period
93.86 min
Inclination
53.0343°
Eccentricity
0.0003719
Mean motion
15.34177841 rev/d
Perigee alt
460.8 km
Apogee alt
465.9 km
Semi-major
6,841.5 km
B*
9.2584e-4
RAAN
192.6964°
Arg perigee
57.0861°
Mean anomaly
303.0497°
Rev number
36,496

§ Raw data

STARLINK-12311 45212U 20012AL  26263.19097470  .00030820  00000+0  92584-3 0  99982 45212  53.0343 192.6964 0003719  57.0861 303.0497 15.34177841364963

JSON: /api/v1/satellites/45212 · /tle

For live sub-satellite position, see the globe view (requires WebGL).

§ Visibility from observer

Set your observer location to see the next 7 days of passes ≥ 10°. The values pass through the URL so the page stays shareable.

No JS? Fill the form by hand. The geolocation button needs JavaScript.